Weather History for La Veta Pass, CO

Change the Weather History Date:

Saturday, September 28, 2013

  Actual Average (KTAD) Record (KTAD)
Temperature  
Mean Temperature 38 °F 59 °F  
Max Temperature 50 °F 75 °F 88 °F (1981)
Min Temperature 26 °F 43 °F 27 °F (1984)
Degree Days  
Heating Degree Days 27 7  
Month to date heating degree days 87  
Since 1 July heating degree days 97  
Cooling Degree Days 0 1  
Month to date cooling degree days 74  
Year to date cooling degree days 716  
Moisture  
Dew Point 17 °F    
Average Humidity 47    
Maximum Humidity 74    
Minimum Humidity 28    
Precipitation  
Precipitation 0.00 in 0.03 in 0.58 in (2004)
Month to date precipitation 1.18  
Year to date precipitation 11.64  
Sea Level Pressure  
Sea Level Pressure 30.31 in    
Wind  
Wind Speed 12 mph (SW)    
Max Wind Speed 23 mph    
Max Gust Speed 44 mph    
Visibility 10 miles    
Events Thunderstorm    
T = Trace of Precipitation, MM = Missing Value Source: NWS Daily Summary

Daily Weather History Graph

Daily Weather History Graph

Search for Another Location

Airport:

Trip Planner

Search our weather history database for the weather conditions in past years. The results will help you decide how hot, cold, wet, or windy it might be!

Date:

Astronomy

Sep. 28, 2013 Rise Set
Actual Time 6:53 AM MDT 6:47 PM MDT
Civil Twilight 6:27 AM MDT 7:13 PM MDT
Nautical Twilight 5:57 AM MDT 7:44 PM MDT
Astronomical Twilight 5:26 AM MDT 8:14 PM MDT
Moon 12:49 AM MDT (9/28) 3:02 PM MDT (9/28)
Length of Visible Light 12h 46m
Length of Day
11h 54m
Waning Crescent, 35% of the Moon is Illuminated
Sep 28
Waning Crescent
Oct 4
New
Oct 11
First Quarter
Oct 18
Full
Oct 26
Last Quarter

Hourly Weather History & Observations

Time (MDT) Temp. Windchill Dew Point Humidity Pressure Visibility Wind Dir Wind Speed Gust Speed Precip Events Conditions
12:15 AM 26.6 °F 17.5 °F 19.4 °F 74% 30.16 in 10.0 mi SW 9.2 mph - N/A   Clear
12:34 AM 26.6 °F 21.2 °F 19.4 °F 74% 30.16 in 10.0 mi West 4.6 mph - N/A   Clear
12:54 AM 26.6 °F 20.0 °F 17.6 °F 69% 30.15 in 10.0 mi West 5.8 mph - N/A   Clear
1:14 AM 28.4 °F 17.5 °F 17.6 °F 64% 30.13 in 10.0 mi WSW 13.8 mph 24.2 mph N/A   Clear
1:33 AM 28.4 °F 18.0 °F 15.8 °F 59% 30.14 in 10.0 mi WSW 12.7 mph 29.9 mph N/A   Clear
1:54 AM 28.4 °F 18.0 °F 15.8 °F 59% 30.15 in 10.0 mi WSW 12.7 mph 31.1 mph N/A   Clear
2:15 AM 28.4 °F 14.7 °F 17.6 °F 64% 30.13 in 10.0 mi WSW 21.9 mph 35.7 mph N/A   Clear
2:34 AM 26.6 °F 16.2 °F 17.6 °F 69% 30.16 in 10.0 mi West 11.5 mph 23.0 mph N/A   Clear
2:54 AM 26.6 °F 14.7 °F 17.6 °F 69% 30.16 in 10.0 mi WSW 15.0 mph 26.5 mph N/A   Clear
3:14 AM 26.6 °F 12.7 °F 19.4 °F 74% 30.15 in 10.0 mi SW 20.7 mph 35.7 mph N/A   Clear
3:35 AM 26.6 °F 12.0 °F 17.6 °F 69% 30.14 in 10.0 mi SW 23.0 mph 43.7 mph N/A   Clear
3:54 AM 26.6 °F 12.7 °F 15.8 °F 64% 30.14 in 10.0 mi SW 20.7 mph 38.0 mph N/A   Clear
4:14 AM 26.6 °F 13.1 °F 15.8 °F 64% 30.16 in 10.0 mi SW 19.6 mph 36.8 mph N/A   Clear
4:34 AM 26.6 °F 15.7 °F 14.0 °F 59% 30.18 in 10.0 mi SW 12.7 mph 34.5 mph N/A   Clear
4:54 AM 26.6 °F 12.4 °F 14.0 °F 59% 30.17 in 10.0 mi SW 21.9 mph 39.1 mph N/A   Clear
5:14 AM 26.6 °F 13.1 °F 14.0 °F 59% 30.18 in 10.0 mi SW 19.6 mph 33.4 mph N/A   Clear
5:35 AM 26.6 °F 13.8 °F 14.0 °F 59% 30.20 in 10.0 mi SW 17.3 mph 29.9 mph N/A   Clear
5:55 AM 26.6 °F 15.2 °F 12.2 °F 55% 30.20 in 10.0 mi SW 13.8 mph 31.1 mph N/A   Clear
6:14 AM 26.6 °F 13.4 °F 12.2 °F 55% 30.21 in 10.0 mi SW 18.4 mph 32.2 mph N/A   Clear
6:33 AM 26.6 °F 14.7 °F 12.2 °F 55% 30.22 in 10.0 mi SW 15.0 mph 31.1 mph N/A   Clear
6:54 AM 26.6 °F 13.1 °F 14.0 °F 59% 30.23 in 10.0 mi SW 19.6 mph 29.9 mph N/A   Clear
7:14 AM 26.6 °F 13.8 °F 14.0 °F 59% 30.25 in 10.0 mi SW 17.3 mph 33.4 mph N/A   Clear
7:34 AM 26.6 °F 13.8 °F 14.0 °F 59% 30.27 in 10.0 mi SW 17.3 mph 26.5 mph N/A   Clear
7:54 AM 26.6 °F 15.2 °F 14.0 °F 59% 30.29 in 10.0 mi SW 13.8 mph 23.0 mph N/A   Clear
8:13 AM 28.4 °F 19.7 °F 14.0 °F 55% 30.29 in 10.0 mi SW 9.2 mph 20.7 mph N/A   Clear
8:34 AM 28.4 °F 19.7 °F 14.0 °F 55% 30.30 in 10.0 mi SW 9.2 mph 16.1 mph N/A   Clear
8:53 AM 30.2 °F 22.6 °F 14.0 °F 51% 30.31 in 10.0 mi WSW 8.1 mph - N/A   Clear
9:14 AM 32.0 °F 24.8 °F 15.8 °F 51% 30.32 in 10.0 mi WSW 8.1 mph 16.1 mph N/A   Clear
9:34 AM 32.0 °F 24.2 °F 17.6 °F 55% 30.33 in 10.0 mi WSW 9.2 mph 17.3 mph N/A   Clear
9:54 AM 33.8 °F 25.8 °F 19.4 °F 56% 30.33 in 10.0 mi WSW 10.4 mph 16.1 mph N/A   Clear
10:14 AM 33.8 °F 25.8 °F 17.6 °F 52% 30.35 in 10.0 mi WSW 10.4 mph 19.6 mph N/A   Clear
10:35 AM 35.6 °F 27.5 °F 19.4 °F 52% 30.35 in 10.0 mi WSW 11.5 mph 19.6 mph N/A   Clear
10:54 AM 37.4 °F 29.8 °F 19.4 °F 48% 30.35 in 10.0 mi SW 11.5 mph 20.7 mph N/A   Clear
11:14 AM 39.2 °F 32.5 °F 21.2 °F 49% 30.35 in 10.0 mi WSW 10.4 mph 19.6 mph N/A   Clear
11:33 AM 39.2 °F 33.0 °F 19.4 °F 45% 30.36 in 10.0 mi SW 9.2 mph 19.6 mph N/A   Clear
11:55 AM 39.2 °F 33.6 °F 19.4 °F 45% 30.36 in 10.0 mi West 8.1 mph 18.4 mph N/A   Clear
12:14 PM 41.0 °F 35.8 °F 19.4 °F 42% 30.37 in 10.0 mi WSW 8.1 mph - N/A   Clear
12:35 PM 42.8 °F 37.5 °F 21.2 °F 42% 30.36 in 10.0 mi West 9.2 mph 19.6 mph N/A   Clear
12:55 PM 44.6 °F 40.2 °F 21.2 °F 39% 30.37 in 10.0 mi West 8.1 mph - N/A   Clear
1:15 PM 44.6 °F 39.7 °F 19.4 °F 37% 30.36 in 10.0 mi West 9.2 mph - N/A   Clear
1:35 PM 44.6 °F 39.7 °F 21.2 °F 39% 30.36 in 10.0 mi SW 9.2 mph - N/A Thunderstorm Clear
1:55 PM 46.4 °F 42.4 °F 21.2 °F 37% 30.36 in 10.0 mi West 8.1 mph - N/A   Clear
2:14 PM 46.4 °F 43.5 °F 21.2 °F 37% 30.36 in 10.0 mi WSW 5.8 mph - N/A   Clear
2:34 PM 48.2 °F - 21.2 °F 34% 30.37 in 10.0 mi WSW 6.9 mph - N/A   Clear
2:55 PM 50.0 °F - 21.2 °F 32% 30.37 in 10.0 mi West 6.9 mph - N/A   Clear
3:14 PM 50.0 °F - 21.2 °F 32% 30.37 in 10.0 mi WSW 6.9 mph - N/A   Clear
3:33 PM 50.0 °F - 19.4 °F 30% 30.38 in 10.0 mi SW 6.9 mph - N/A   Clear
3:54 PM 50.0 °F - 19.4 °F 30% 30.38 in 10.0 mi SW 6.9 mph - N/A   Clear
4:14 PM 50.0 °F - 19.4 °F 30% 30.38 in 10.0 mi West 5.8 mph - N/A   Clear
4:33 PM 50.0 °F - 19.4 °F 30% 30.38 in 10.0 mi WSW 6.9 mph - N/A   Clear
4:54 PM 50.0 °F - 17.6 °F 28% 30.39 in 10.0 mi SW 10.4 mph 16.1 mph N/A   Clear
5:14 PM 46.4 °F 42.4 °F 17.6 °F 32% 30.39 in 10.0 mi SW 8.1 mph 17.3 mph N/A   Clear
5:34 PM 44.6 °F 40.7 °F 17.6 °F 34% 30.39 in 10.0 mi SW 6.9 mph - N/A   Clear
5:54 PM 44.6 °F 39.7 °F 15.8 °F 31% 30.39 in 10.0 mi SW 9.2 mph 16.1 mph N/A   Clear
6:10 PM 44.6 °F 39.2 °F 15.8 °F 31% 30.39 in 10.0 mi SW 10.4 mph 18.4 mph N/A   Clear
6:34 PM 42.8 °F 37.5 °F 14.0 °F 31% 30.38 in 10.0 mi WSW 9.2 mph - N/A   Clear
6:53 PM 42.8 °F 38.0 °F 14.0 °F 31% 30.38 in 10.0 mi SW 8.1 mph - N/A   Clear
7:14 PM 41.0 °F 34.7 °F 14.0 °F 33% 30.38 in 10.0 mi SW 10.4 mph - N/A   Clear
7:30 PM 41.0 °F 35.2 °F 14.0 °F 33% 30.38 in 10.0 mi SW 9.2 mph 19.6 mph N/A   Clear
7:54 PM 41.0 °F 35.2 °F 12.2 °F 31% 30.38 in 10.0 mi SW 9.2 mph 19.6 mph N/A   Clear
8:13 PM 41.0 °F 33.9 °F 12.2 °F 31% 30.39 in 10.0 mi SW 12.7 mph 18.4 mph N/A   Clear
8:34 PM 41.0 °F 35.8 °F 12.2 °F 31% 30.40 in 10.0 mi SW 8.1 mph 18.4 mph N/A   Clear
8:54 PM 39.2 °F 32.5 °F 14.0 °F 36% 30.40 in 10.0 mi SW 10.4 mph 18.4 mph N/A   Clear
9:14 PM 39.2 °F 33.0 °F 14.0 °F 36% 30.41 in 10.0 mi SW 9.2 mph 16.1 mph N/A   Clear
9:33 PM 41.0 °F 34.7 °F 14.0 °F 33% 30.42 in 10.0 mi SW 10.4 mph 18.4 mph N/A   Clear
9:54 PM 39.2 °F 32.0 °F 14.0 °F 36% 30.42 in 10.0 mi SW 11.5 mph 18.4 mph N/A   Clear
10:14 PM 39.2 °F 32.5 °F 15.8 °F 39% 30.42 in 10.0 mi SW 10.4 mph 20.7 mph N/A   Clear
10:34 PM 39.2 °F 32.0 °F 17.6 °F 42% 30.42 in 10.0 mi SW 11.5 mph 23.0 mph N/A   Clear
10:54 PM 39.2 °F 31.6 °F 17.6 °F 42% 30.42 in 10.0 mi SW 12.7 mph 20.7 mph N/A   Clear
11:13 PM 39.2 °F 32.5 °F 19.4 °F 45% 30.41 in 10.0 mi SW 10.4 mph 19.6 mph N/A   Clear
11:34 PM 39.2 °F 32.5 °F 19.4 °F 45% 30.42 in 10.0 mi SW 10.4 mph 19.6 mph N/A   Clear
11:53 PM 37.4 °F 30.3 °F 19.4 °F 48% 30.41 in 10.0 mi SW 10.4 mph 18.4 mph N/A   Clear